Year,Month,Day,Hour,Minute,Value (Times are PST for temperature in C)
2006,03,12,00,00,0.50
2006,03,12,00,01,0.50
2006,03,12,00,02,0.50
2006,03,12,00,03,0.50
2006,03,12,00,04,0.50
2006,03,12,00,05,0.50
2006,03,12,00,06,0.40
2006,03,12,00,07,0.40
2006,03,12,00,08,0.40
2006,03,12,00,09,0.40
2006,03,12,00,10,0.30
2006,03,12,00,11,0.20
2006,03,12,00,12,0.10
2006,03,12,00,13,0.00
2006,03,12,00,14,-0.10
2006,03,12,00,15,-0.10
2006,03,12,00,16,-0.10
2006,03,12,00,17,-0.10
2006,03,12,00,18,-0.20
2006,03,12,00,19,-0.20
2006,03,12,00,20,-0.20
2006,03,12,00,21,-0.20
2006,03,12,00,22,-0.20
2006,03,12,00,23,-0.10
2006,03,12,00,24,-0.10
2006,03,12,00,25,-0.10
2006,03,12,00,26,-0.10
2006,03,12,00,27,-0.10
2006,03,12,00,28,0.00
2006,03,12,00,29,0.10
2006,03,12,00,30,0.10
2006,03,12,00,31,0.30
2006,03,12,00,32,0.30
2006,03,12,00,33,0.40
2006,03,12,00,34,0.40
2006,03,12,00,35,0.50
2006,03,12,00,36,0.50
2006,03,12,00,37,0.50
2006,03,12,00,38,0.60
2006,03,12,00,39,0.60
2006,03,12,00,40,0.60
2006,03,12,00,41,0.60
2006,03,12,00,42,0.60
2006,03,12,00,43,0.60
2006,03,12,00,44,0.60
2006,03,12,00,45,0.60
2006,03,12,00,46,0.60
2006,03,12,00,47,0.60
2006,03,12,00,48,0.60
2006,03,12,00,49,0.60
2006,03,12,00,50,0.60
2006,03,12,00,51,0.60
2006,03,12,00,52,0.60
2006,03,12,00,53,0.50
2006,03,12,00,54,0.50
2006,03,12,00,55,0.50
2006,03,12,00,56,0.40
2006,03,12,00,57,0.40
2006,03,12,00,58,0.40
2006,03,12,00,59,0.40
2006,03,12,01,00,0.40
2006,03,12,01,01,0.30
2006,03,12,01,02,0.30
2006,03,12,01,03,0.20
2006,03,12,01,04,0.20
2006,03,12,01,05,0.10
2006,03,12,01,06,0.10
2006,03,12,01,07,0.10
2006,03,12,01,08,0.10
2006,03,12,01,09,0.00
2006,03,12,01,10,-0.10
2006,03,12,01,11,-0.10
2006,03,12,01,12,-0.10
2006,03,12,01,13,-0.20
2006,03,12,01,14,-0.30
2006,03,12,01,15,-0.30
2006,03,12,01,16,-0.40
2006,03,12,01,17,-0.40
2006,03,12,01,18,-0.40
2006,03,12,01,19,-0.40
2006,03,12,01,20,-0.50
2006,03,12,01,21,-0.60
2006,03,12,01,22,-0.60
2006,03,12,01,23,-0.60
2006,03,12,01,24,-0.60
2006,03,12,01,25,-0.60
2006,03,12,01,26,-0.60
2006,03,12,01,27,-0.60
2006,03,12,01,28,-0.60
2006,03,12,01,29,-0.60
2006,03,12,01,30,-0.50
2006,03,12,01,31,-0.40
2006,03,12,01,32,-0.40
2006,03,12,01,33,-0.40
2006,03,12,01,34,-0.30
2006,03,12,01,35,-0.20
2006,03,12,01,36,-0.10
2006,03,12,01,37,-0.10
2006,03,12,01,38,0.00
2006,03,12,01,39,0.10
2006,03,12,01,40,0.10
2006,03,12,01,41,0.20
2006,03,12,01,42,0.30
2006,03,12,01,43,0.40
2006,03,12,01,44,0.60
2006,03,12,01,45,0.60
2006,03,12,01,46,0.70
2006,03,12,01,47,0.80
2006,03,12,01,48,0.90
2006,03,12,01,49,1.10
2006,03,12,01,50,1.10
2006,03,12,01,51,1.30
2006,03,12,01,52,1.30
2006,03,12,01,53,1.40
2006,03,12,01,54,1.40
2006,03,12,01,55,1.40
2006,03,12,01,56,1.40
2006,03,12,01,57,1.40
2006,03,12,01,58,1.30
2006,03,12,01,59,1.10
2006,03,12,02,00,0.80
2006,03,12,02,01,0.80
2006,03,12,02,02,0.60
2006,03,12,02,03,0.50
2006,03,12,02,04,0.50
2006,03,12,02,05,0.40
2006,03,12,02,06,0.40
2006,03,12,02,07,0.40
2006,03,12,02,08,0.40
2006,03,12,02,09,0.40
2006,03,12,02,10,0.30
2006,03,12,02,11,0.30
2006,03,12,02,12,0.20
2006,03,12,02,13,0.20
2006,03,12,02,14,0.10
2006,03,12,02,15,0.10
2006,03,12,02,16,0.10
2006,03,12,02,17,0.00
2006,03,12,02,18,-0.10
2006,03,12,02,19,-0.10
2006,03,12,02,20,-0.10
2006,03,12,02,21,-0.10
2006,03,12,02,22,-0.20
2006,03,12,02,23,-0.30
2006,03,12,02,24,-0.30
2006,03,12,02,25,-0.30
2006,03,12,02,26,-0.40
2006,03,12,02,27,-0.40
2006,03,12,02,28,-0.40
2006,03,12,02,29,-0.50
2006,03,12,02,30,-0.60
2006,03,12,02,31,-0.60
2006,03,12,02,32,-0.60
2006,03,12,02,33,-0.70
2006,03,12,02,34,-0.70
2006,03,12,02,35,-0.70
2006,03,12,02,36,-0.80
2006,03,12,02,37,-0.80
2006,03,12,02,38,-0.80
2006,03,12,02,39,-0.80
2006,03,12,02,40,-0.80
2006,03,12,02,41,-0.80
2006,03,12,02,42,-0.80
2006,03,12,02,43,-0.80
2006,03,12,02,44,-0.80
2006,03,12,02,45,-0.80
2006,03,12,02,46,-0.80
2006,03,12,02,47,-0.80
2006,03,12,02,48,-0.80
2006,03,12,02,49,-0.80
2006,03,12,02,50,-0.90
2006,03,12,02,51,-0.90
2006,03,12,02,52,-1.00
2006,03,12,02,53,-1.10
2006,03,12,02,54,-1.10
2006,03,12,02,55,-1.10
2006,03,12,02,56,-1.10
2006,03,12,02,57,-1.10
2006,03,12,02,58,-1.10
2006,03,12,02,59,-1.10
2006,03,12,03,00,-1.00
2006,03,12,03,01,-0.90
2006,03,12,03,02,-0.90
2006,03,12,03,03,-0.90
2006,03,12,03,04,-0.80
2006,03,12,03,05,-0.70
2006,03,12,03,06,-0.70
2006,03,12,03,07,-0.60
2006,03,12,03,08,-0.60
2006,03,12,03,09,-0.50
2006,03,12,03,10,-0.40
2006,03,12,03,11,-0.40
2006,03,12,03,12,-0.40
2006,03,12,03,13,-0.30
2006,03,12,03,14,-0.20
2006,03,12,03,15,-0.10
2006,03,12,03,16,-0.10
2006,03,12,03,17,-0.10
2006,03,12,03,18,-0.10
2006,03,12,03,19,-0.10
2006,03,12,03,20,-0.10
2006,03,12,03,21,-0.10
2006,03,12,03,22,-0.10
2006,03,12,03,23,-0.20
2006,03,12,03,24,-0.30
2006,03,12,03,25,-0.40
2006,03,12,03,26,-0.40
2006,03,12,03,27,-0.50
2006,03,12,03,28,-0.60
2006,03,12,03,29,-0.60
2006,03,12,03,30,-0.70
2006,03,12,03,31,-0.80
2006,03,12,03,32,-0.80
2006,03,12,03,33,-0.80
2006,03,12,03,34,-0.90
2006,03,12,03,35,-0.90
2006,03,12,03,36,-0.90
2006,03,12,03,37,-0.90
2006,03,12,03,38,-0.90
2006,03,12,03,39,-0.90
2006,03,12,03,40,-0.90
2006,03,12,03,41,-0.90
2006,03,12,03,42,-0.90
2006,03,12,03,43,-0.90
2006,03,12,03,44,-0.80
2006,03,12,03,45,-0.80
2006,03,12,03,46,-0.80
2006,03,12,03,47,-0.70
2006,03,12,03,48,-0.70
2006,03,12,03,49,-0.70
2006,03,12,03,50,-0.60
2006,03,12,03,51,-0.60
2006,03,12,03,52,-0.60
2006,03,12,03,53,-0.60
2006,03,12,03,54,-0.60
2006,03,12,03,55,-0.50
2006,03,12,03,56,-0.40
2006,03,12,03,57,-0.40
2006,03,12,03,58,-0.40
2006,03,12,03,59,-0.40
2006,03,12,04,00,-0.40
2006,03,12,04,01,-0.40
2006,03,12,04,02,-0.40
2006,03,12,04,03,-0.40
2006,03,12,04,04,-0.40
2006,03,12,04,05,-0.40
2006,03,12,04,06,-0.40
2006,03,12,04,07,-0.40
2006,03,12,04,08,-0.40
2006,03,12,04,09,-0.40
2006,03,12,04,10,-0.40
2006,03,12,04,11,-0.40
2006,03,12,04,12,-0.40
2006,03,12,04,13,-0.30
2006,03,12,04,14,-0.30
2006,03,12,04,15,-0.10
2006,03,12,04,16,-0.10
2006,03,12,04,17,-0.10
2006,03,12,04,18,0.00
2006,03,12,04,19,0.10
2006,03,12,04,20,0.10
2006,03,12,04,21,0.10
2006,03,12,04,22,0.10
2006,03,12,04,23,0.20
2006,03,12,04,24,0.20
2006,03,12,04,25,0.30
2006,03,12,04,26,0.30
2006,03,12,04,27,0.30
2006,03,12,04,28,0.30
2006,03,12,04,29,0.20
2006,03,12,04,30,0.20
2006,03,12,04,31,0.20
2006,03,12,04,32,0.20
2006,03,12,04,33,0.10
2006,03,12,04,34,0.10
2006,03,12,04,35,0.10
2006,03,12,04,36,0.10
2006,03,12,04,37,0.10
2006,03,12,04,38,0.10
2006,03,12,04,39,0.10
2006,03,12,04,40,0.10
2006,03,12,04,41,0.00
2006,03,12,04,42,-0.10
2006,03,12,04,43,-0.20
2006,03,12,04,44,-0.30
2006,03,12,04,45,-0.30
2006,03,12,04,46,-0.40
2006,03,12,04,47,-0.40
2006,03,12,04,48,-0.40
2006,03,12,04,49,-0.50
2006,03,12,04,50,-0.60
2006,03,12,04,51,-0.60
2006,03,12,04,52,-0.60
2006,03,12,04,53,-0.60
2006,03,12,04,54,-0.60
2006,03,12,04,55,-0.70
2006,03,12,04,56,-0.70
2006,03,12,04,57,-0.80
2006,03,12,04,58,-0.80
2006,03,12,04,59,-0.80
2006,03,12,05,00,-0.80
2006,03,12,05,01,-0.90
2006,03,12,05,02,-0.90
2006,03,12,05,03,-0.90
2006,03,12,05,04,-0.90
2006,03,12,05,05,-0.90
2006,03,12,05,06,-0.90
2006,03,12,05,07,-0.90
2006,03,12,05,08,-0.90
2006,03,12,05,09,-1.00
2006,03,12,05,10,-1.10
2006,03,12,05,11,-1.10
2006,03,12,05,12,-1.10
2006,03,12,05,13,-1.10
2006,03,12,05,14,-1.10
2006,03,12,05,15,-1.20
2006,03,12,05,16,-1.20
2006,03,12,05,17,-1.40
2006,03,12,05,18,-1.40
2006,03,12,05,19,-1.40
2006,03,12,05,20,-1.50
2006,03,12,05,21,-1.50
2006,03,12,05,22,-1.60
2006,03,12,05,23,-1.60
2006,03,12,05,24,-1.60
2006,03,12,05,25,-1.70
2006,03,12,05,26,-1.70
2006,03,12,05,27,-1.70
2006,03,12,05,28,-1.70
2006,03,12,05,29,-1.70
2006,03,12,05,30,-1.60
2006,03,12,05,31,-1.60
2006,03,12,05,32,-1.60
2006,03,12,05,33,-1.50
2006,03,12,05,34,-1.50
2006,03,12,05,35,-1.40
2006,03,12,05,36,-1.40
2006,03,12,05,37,-1.40
2006,03,12,05,38,-1.30
2006,03,12,05,39,-1.30
2006,03,12,05,40,-1.30
2006,03,12,05,41,-1.20
2006,03,12,05,42,-1.20
2006,03,12,05,43,-1.20
2006,03,12,05,44,-1.10
2006,03,12,05,45,-1.10
2006,03,12,05,46,-1.10
2006,03,12,05,47,-1.10
2006,03,12,05,48,-1.10
2006,03,12,05,49,-1.10
2006,03,12,05,50,-1.10
2006,03,12,05,51,-1.10
2006,03,12,05,52,-1.10
2006,03,12,05,53,-1.10
2006,03,12,05,54,-1.10
2006,03,12,05,55,-1.10
2006,03,12,05,56,-1.20
2006,03,12,05,57,-1.30
2006,03,12,05,58,-1.40
2006,03,12,05,59,-1.40
2006,03,12,06,00,-1.50
2006,03,12,06,01,-1.60
2006,03,12,06,02,-1.60
2006,03,12,06,03,-1.70
2006,03,12,06,04,-1.70
2006,03,12,06,05,-1.80
2006,03,12,06,06,-1.80
2006,03,12,06,07,-1.80
2006,03,12,06,08,-1.80
2006,03,12,06,09,-1.80
2006,03,12,06,10,-1.90
2006,03,12,06,11,-1.90
2006,03,12,06,12,-1.90
2006,03,12,06,13,-1.90
2006,03,12,06,14,-1.90
2006,03,12,06,15,-1.90
2006,03,12,06,16,-1.90
2006,03,12,06,17,-1.90
2006,03,12,06,18,-1.90
2006,03,12,06,19,-1.80
2006,03,12,06,20,-1.80
2006,03,12,06,21,-1.80
2006,03,12,06,22,-1.80
2006,03,12,06,23,-1.70
2006,03,12,06,24,-1.70
2006,03,12,06,25,-1.60
2006,03,12,06,26,-1.50
2006,03,12,06,27,-1.40
2006,03,12,06,28,-1.40
2006,03,12,06,29,-1.40
2006,03,12,06,30,-1.40
2006,03,12,06,31,-1.40
2006,03,12,06,32,-1.40
2006,03,12,06,33,-1.40
2006,03,12,06,34,-1.30
2006,03,12,06,35,-1.30
2006,03,12,06,36,-1.30
2006,03,12,06,37,-1.30
2006,03,12,06,38,-1.40
2006,03,12,06,39,-1.40
2006,03,12,06,40,-1.40
2006,03,12,06,41,-1.40
2006,03,12,06,42,-1.40
2006,03,12,06,43,-1.40
2006,03,12,06,44,-1.40
2006,03,12,06,45,-1.40
2006,03,12,06,46,-1.40
2006,03,12,06,47,-1.40
2006,03,12,06,48,-1.40
2006,03,12,06,49,-1.40
2006,03,12,06,50,-1.40
2006,03,12,06,51,-1.30
2006,03,12,06,52,-1.30
2006,03,12,06,53,-1.30
2006,03,12,06,54,-1.30
2006,03,12,06,55,-1.30
2006,03,12,06,56,-1.30
2006,03,12,06,57,-1.20
2006,03,12,06,58,-1.20
2006,03,12,06,59,-1.20
2006,03,12,07,00,-1.20
2006,03,12,07,01,-1.20
2006,03,12,07,02,-1.20
2006,03,12,07,03,-1.20
2006,03,12,07,04,-1.10
2006,03,12,07,05,-1.10
2006,03,12,07,06,-1.10
2006,03,12,07,07,-1.10
2006,03,12,07,08,-1.10
2006,03,12,07,09,-1.10
2006,03,12,07,10,-0.90
2006,03,12,07,11,-0.90
2006,03,12,07,12,-0.90
2006,03,12,07,13,-0.90
2006,03,12,07,14,-0.90
2006,03,12,07,15,-1.00
2006,03,12,07,16,-1.10
2006,03,12,07,17,-1.10
2006,03,12,07,18,-1.10
2006,03,12,07,19,-1.10
2006,03,12,07,20,-1.00
2006,03,12,07,21,-0.90
2006,03,12,07,22,-0.90
2006,03,12,07,23,-0.90
2006,03,12,07,24,-0.90
2006,03,12,07,25,-0.90
2006,03,12,07,26,-0.90
2006,03,12,07,27,-0.90
2006,03,12,07,28,-0.90
2006,03,12,07,29,-0.80
2006,03,12,07,30,-0.80
2006,03,12,07,31,-0.80
2006,03,12,07,32,-0.80
2006,03,12,07,33,-0.80
2006,03,12,07,34,-0.80
2006,03,12,07,35,-0.80
2006,03,12,07,36,-0.80
2006,03,12,07,37,-0.70
2006,03,12,07,38,-0.70
2006,03,12,07,39,-0.70
2006,03,12,07,40,-0.70
2006,03,12,07,41,-0.70
2006,03,12,07,42,-0.70
2006,03,12,07,43,-0.70
2006,03,12,07,44,-0.70
2006,03,12,07,45,-0.60
2006,03,12,07,46,-0.60
2006,03,12,07,47,-0.60
2006,03,12,07,48,-0.50
2006,03,12,07,49,-0.40
2006,03,12,07,50,-0.40
2006,03,12,07,51,-0.30
2006,03,12,07,52,-0.20
2006,03,12,07,53,-0.10
2006,03,12,07,54,-0.10
2006,03,12,07,55,0.00
2006,03,12,07,56,0.10
2006,03,12,07,57,0.10
2006,03,12,07,58,0.20
2006,03,12,07,59,0.30
2006,03,12,08,00,0.40
2006,03,12,08,01,0.40
2006,03,12,08,02,0.50
2006,03,12,08,03,0.50
2006,03,12,08,04,0.60
2006,03,12,08,05,0.60
2006,03,12,08,06,0.60
2006,03,12,08,07,0.70
2006,03,12,08,08,0.70
2006,03,12,08,09,0.80
2006,03,12,08,10,0.80
2006,03,12,08,11,0.90
2006,03,12,08,12,0.90
2006,03,12,08,13,1.00
2006,03,12,08,14,1.00
2006,03,12,08,15,1.10
2006,03,12,08,16,1.20
2006,03,12,08,17,1.30
2006,03,12,08,18,1.50
2006,03,12,08,19,1.50
2006,03,12,08,20,1.60
2006,03,12,08,21,1.60
2006,03,12,08,22,1.70
2006,03,12,08,23,1.80
2006,03,12,08,24,1.90
2006,03,12,08,25,2.00
2006,03,12,08,26,2.10
2006,03,12,08,27,2.20
2006,03,12,08,28,2.40
2006,03,12,08,29,2.60
2006,03,12,08,30,2.70
2006,03,12,08,31,2.90
2006,03,12,08,32,2.90
2006,03,12,08,33,3.00
2006,03,12,08,34,3.10
2006,03,12,08,35,3.20
2006,03,12,08,36,3.30
2006,03,12,08,37,3.50
2006,03,12,08,38,3.70
2006,03,12,08,39,3.80
2006,03,12,08,40,3.90
2006,03,12,08,41,4.00
2006,03,12,08,42,4.20
2006,03,12,08,43,4.20
2006,03,12,08,44,4.30
2006,03,12,08,45,4.30
2006,03,12,08,46,4.40
2006,03,12,08,47,4.40
2006,03,12,08,48,4.50
2006,03,12,08,49,4.50
2006,03,12,08,50,4.60
2006,03,12,08,51,4.60
2006,03,12,08,52,4.60
2006,03,12,08,53,4.60
2006,03,12,08,54,4.70
2006,03,12,08,55,4.70
2006,03,12,08,56,4.80
2006,03,12,08,57,4.80
2006,03,12,08,58,4.80
2006,03,12,08,59,4.80
2006,03,12,09,00,4.90
2006,03,12,09,01,4.90
2006,03,12,09,02,4.90
2006,03,12,09,03,4.90
2006,03,12,09,04,4.90
2006,03,12,09,05,5.00
2006,03,12,09,06,5.10
2006,03,12,09,07,5.10
2006,03,12,09,08,5.10
2006,03,12,09,09,5.10
2006,03,12,09,10,5.10
2006,03,12,09,11,5.10
2006,03,12,09,12,5.10
2006,03,12,09,13,5.10
2006,03,12,09,14,5.10
2006,03,12,09,15,5.10
2006,03,12,09,16,5.20
2006,03,12,09,17,5.20
2006,03,12,09,18,5.20
2006,03,12,09,19,5.20
2006,03,12,09,20,5.30
2006,03,12,09,21,5.30
2006,03,12,09,22,5.30
2006,03,12,09,23,5.30
2006,03,12,09,24,5.30
2006,03,12,09,25,5.40
2006,03,12,09,26,5.40
2006,03,12,09,27,5.40
2006,03,12,09,28,5.40
2006,03,12,09,29,5.40
2006,03,12,09,30,5.40
2006,03,12,09,31,5.50
2006,03,12,09,32,5.50
2006,03,12,09,33,5.50
2006,03,12,09,34,5.50
2006,03,12,09,35,5.50
2006,03,12,09,36,5.60
2006,03,12,09,37,5.60
2006,03,12,09,38,5.70
2006,03,12,09,39,5.70
2006,03,12,09,40,5.70
2006,03,12,09,41,5.70
2006,03,12,09,42,5.70
2006,03,12,09,43,5.70
2006,03,12,09,44,5.70
2006,03,12,09,45,5.70
2006,03,12,09,46,5.80
2006,03,12,09,47,5.80
2006,03,12,09,48,5.80
2006,03,12,09,49,5.80
2006,03,12,09,50,5.70
2006,03,12,09,51,5.70
2006,03,12,09,52,5.70
2006,03,12,09,53,5.70
2006,03,12,09,54,5.70
2006,03,12,09,55,5.70
2006,03,12,09,56,5.80
2006,03,12,09,57,5.80
2006,03,12,09,58,5.90
2006,03,12,09,59,6.00
2006,03,12,10,00,6.00
2006,03,12,10,01,6.10
2006,03,12,10,02,6.00
2006,03,12,10,03,6.00
2006,03,12,10,04,6.00
2006,03,12,10,05,6.00
2006,03,12,10,06,6.10
2006,03,12,10,07,6.10
2006,03,12,10,08,6.10
2006,03,12,10,09,6.00
2006,03,12,10,10,6.00
2006,03,12,10,11,6.00
2006,03,12,10,12,6.10
2006,03,12,10,13,6.10
2006,03,12,10,14,6.20
2006,03,12,10,15,6.20
2006,03,12,10,16,6.20
2006,03,12,10,17,6.20
2006,03,12,10,18,6.30
2006,03,12,10,19,6.30
2006,03,12,10,20,6.40
2006,03,12,10,21,6.40
2006,03,12,10,22,6.40
2006,03,12,10,23,6.40
2006,03,12,10,24,6.40
2006,03,12,10,25,6.40
2006,03,12,10,26,6.40
2006,03,12,10,27,6.50
2006,03,12,10,28,6.60
2006,03,12,10,29,6.60
2006,03,12,10,30,6.70
2006,03,12,10,31,6.80
2006,03,12,10,32,6.80
2006,03,12,10,33,6.80
2006,03,12,10,34,6.80
2006,03,12,10,35,6.80
2006,03,12,10,36,6.80
2006,03,12,10,37,6.90
2006,03,12,10,38,6.90
2006,03,12,10,39,7.00
2006,03,12,10,40,7.00
2006,03,12,10,41,7.10
2006,03,12,10,42,7.10
2006,03,12,10,43,7.10
2006,03,12,10,44,7.20
2006,03,12,10,45,7.20
2006,03,12,10,46,7.20
2006,03,12,10,47,7.30
2006,03,12,10,48,7.20
2006,03,12,10,49,7.20
2006,03,12,10,50,7.10
2006,03,12,10,51,7.10
2006,03,12,10,52,7.10
2006,03,12,10,53,7.10
2006,03,12,10,54,7.20
2006,03,12,10,55,7.30
2006,03,12,10,56,7.30
2006,03,12,10,57,7.30
2006,03,12,10,58,7.20
2006,03,12,10,59,7.10
2006,03,12,11,00,7.10
2006,03,12,11,01,7.10
2006,03,12,11,02,7.00
2006,03,12,11,03,7.00
2006,03,12,11,04,7.00
2006,03,12,11,05,7.10
2006,03,12,11,06,7.20
2006,03,12,11,07,7.30
2006,03,12,11,08,7.40
2006,03,12,11,09,7.40
2006,03,12,11,10,7.40
2006,03,12,11,11,7.30
2006,03,12,11,12,7.30
2006,03,12,11,13,7.20
2006,03,12,11,14,7.10
2006,03,12,11,15,7.00
2006,03,12,11,16,6.90
2006,03,12,11,17,6.90
2006,03,12,11,18,7.00
2006,03,12,11,19,7.10
2006,03,12,11,20,7.20
2006,03,12,11,21,7.30
2006,03,12,11,22,7.30
2006,03,12,11,23,7.30
2006,03,12,11,24,7.30
2006,03,12,11,25,7.30
2006,03,12,11,26,7.40
2006,03,12,11,27,7.40
2006,03,12,11,28,7.40
2006,03,12,11,29,7.40
2006,03,12,11,30,7.50
2006,03,12,11,31,7.60
2006,03,12,11,32,7.60
2006,03,12,11,33,7.60
2006,03,12,11,34,7.70
2006,03,12,11,35,7.60
2006,03,12,11,36,7.60
2006,03,12,11,37,7.50
2006,03,12,11,38,7.60
2006,03,12,11,39,7.60
2006,03,12,11,40,7.80
2006,03,12,11,41,7.80
2006,03,12,11,42,7.90
2006,03,12,11,43,8.00
2006,03,12,11,44,8.10
2006,03,12,11,45,8.10
2006,03,12,11,46,8.20
2006,03,12,11,47,8.20
2006,03,12,11,48,8.40
2006,03,12,11,49,8.50
2006,03,12,11,50,8.50
2006,03,12,11,51,8.60
2006,03,12,11,52,8.60
2006,03,12,11,53,8.40
2006,03,12,11,54,8.20
2006,03,12,11,55,8.00
2006,03,12,11,56,8.00
2006,03,12,11,57,8.00
2006,03,12,11,58,8.10
2006,03,12,11,59,8.10
2006,03,12,12,00,8.20
2006,03,12,12,01,8.30
2006,03,12,12,02,8.30
2006,03,12,12,03,8.10
2006,03,12,12,04,7.90
2006,03,12,12,05,7.90
2006,03,12,12,06,7.90
2006,03,12,12,07,7.90
2006,03,12,12,08,7.80
2006,03,12,12,09,7.90
2006,03,12,12,10,8.00
2006,03,12,12,11,8.10
2006,03,12,12,12,8.20
2006,03,12,12,13,8.20
2006,03,12,12,14,8.20
2006,03,12,12,15,8.10
2006,03,12,12,16,8.10
2006,03,12,12,17,8.10
2006,03,12,12,18,8.20
2006,03,12,12,19,8.20
2006,03,12,12,20,8.30
2006,03,12,12,21,8.40
2006,03,12,12,22,8.40
2006,03,12,12,23,8.40
2006,03,12,12,24,8.40
2006,03,12,12,25,8.30
2006,03,12,12,26,8.10
2006,03,12,12,27,8.10
2006,03,12,12,28,8.10
2006,03,12,12,29,8.20
2006,03,12,12,30,8.20
2006,03,12,12,31,8.30
2006,03,12,12,32,8.40
2006,03,12,12,33,8.40
2006,03,12,12,34,8.40
2006,03,12,12,35,8.60
2006,03,12,12,36,8.60
2006,03,12,12,37,8.70
2006,03,12,12,38,8.80
2006,03,12,12,39,8.90
2006,03,12,12,40,9.10
2006,03,12,12,41,9.20
2006,03,12,12,42,9.20
2006,03,12,12,43,9.20
2006,03,12,12,44,9.20
2006,03,12,12,45,9.30
2006,03,12,12,46,9.30
2006,03,12,12,47,9.20
2006,03,12,12,48,9.20
2006,03,12,12,49,9.00
2006,03,12,12,50,9.00
2006,03,12,12,51,9.00
2006,03,12,12,52,8.90
2006,03,12,12,53,8.80
2006,03,12,12,54,8.80
2006,03,12,12,55,8.90
2006,03,12,12,56,8.90
2006,03,12,12,57,9.00
2006,03,12,12,58,9.00
2006,03,12,12,59,9.10
2006,03,12,13,00,9.20
2006,03,12,13,01,9.10
2006,03,12,13,02,9.10
2006,03,12,13,03,9.00
2006,03,12,13,04,9.00
2006,03,12,13,05,9.00
2006,03,12,13,06,9.10
2006,03,12,13,07,9.10
2006,03,12,13,08,9.10
2006,03,12,13,09,9.20
2006,03,12,13,10,9.20
2006,03,12,13,11,9.30
2006,03,12,13,12,9.30
2006,03,12,13,13,9.20
2006,03,12,13,14,9.20
2006,03,12,13,15,9.20
2006,03,12,13,16,9.20
2006,03,12,13,17,9.30
2006,03,12,13,18,9.30
2006,03,12,13,19,9.30
2006,03,12,13,20,9.30
2006,03,12,13,21,9.50
2006,03,12,13,22,9.50
2006,03,12,13,23,9.30
2006,03,12,13,24,9.30
2006,03,12,13,25,9.30
2006,03,12,13,26,9.40
2006,03,12,13,27,9.50
2006,03,12,13,28,9.60
2006,03,12,13,29,9.70
2006,03,12,13,30,9.80
2006,03,12,13,31,10.00
2006,03,12,13,32,10.10
2006,03,12,13,33,10.10
2006,03,12,13,34,10.20
2006,03,12,13,35,10.20
2006,03,12,13,36,10.10
2006,03,12,13,37,10.00
2006,03,12,13,38,9.90
2006,03,12,13,39,9.90
2006,03,12,13,40,9.90
2006,03,12,13,41,9.90
2006,03,12,13,42,9.90
2006,03,12,13,43,10.00
2006,03,12,13,44,10.10
2006,03,12,13,45,10.10
2006,03,12,13,46,10.10
2006,03,12,13,47,10.00
2006,03,12,13,48,9.90
2006,03,12,13,49,9.90
2006,03,12,13,50,9.90
2006,03,12,13,51,9.90
2006,03,12,13,52,9.90
2006,03,12,13,53,9.90
2006,03,12,13,54,9.90
2006,03,12,13,55,9.90
2006,03,12,13,56,9.90
2006,03,12,13,57,9.90
2006,03,12,13,58,9.80
2006,03,12,13,59,9.70
2006,03,12,14,00,9.70
2006,03,12,14,01,9.70
2006,03,12,14,02,9.70
2006,03,12,14,03,9.60
2006,03,12,14,04,9.50
2006,03,12,14,05,9.40
2006,03,12,14,06,9.40
2006,03,12,14,07,9.00
2006,03,12,14,08,8.90
2006,03,12,14,09,8.80
2006,03,12,14,10,8.70
2006,03,12,14,11,8.60
2006,03,12,14,12,8.50
2006,03,12,14,13,8.40
2006,03,12,14,14,8.30
2006,03,12,14,15,8.20
2006,03,12,14,16,8.20
2006,03,12,14,17,8.20
2006,03,12,14,18,8.30
2006,03,12,14,19,8.40
2006,03,12,14,20,8.30
2006,03,12,14,21,8.30
2006,03,12,14,22,8.30
2006,03,12,14,23,8.30
2006,03,12,14,24,8.40
2006,03,12,14,25,8.40
2006,03,12,14,26,8.40
2006,03,12,14,27,8.40
2006,03,12,14,28,8.50
2006,03,12,14,29,8.60
2006,03,12,14,30,8.70
2006,03,12,14,31,8.70
2006,03,12,14,32,8.60
2006,03,12,14,33,8.70
2006,03,12,14,34,8.60
2006,03,12,14,35,8.60
2006,03,12,14,36,8.60
2006,03,12,14,37,8.40
2006,03,12,14,38,8.30
2006,03,12,14,39,8.30
2006,03,12,14,40,8.30
2006,03,12,14,41,8.40
2006,03,12,14,42,8.40
2006,03,12,14,43,8.50
2006,03,12,14,44,8.40
2006,03,12,14,45,8.30
2006,03,12,14,46,8.10
2006,03,12,14,47,8.00
2006,03,12,14,48,7.90
2006,03,12,14,49,7.80
2006,03,12,14,50,7.80
2006,03,12,14,51,7.80
2006,03,12,14,52,7.80
2006,03,12,14,53,7.80
2006,03,12,14,54,7.80
2006,03,12,14,55,7.80
2006,03,12,14,56,7.80
2006,03,12,14,57,7.70
2006,03,12,14,58,7.70
2006,03,12,14,59,7.70
2006,03,12,15,00,7.80
2006,03,12,15,01,7.80
2006,03,12,15,02,7.80
2006,03,12,15,03,7.90
2006,03,12,15,04,7.90
2006,03,12,15,05,7.90
2006,03,12,15,06,8.00
2006,03,12,15,07,8.00
2006,03,12,15,08,8.10
2006,03,12,15,09,8.00
2006,03,12,15,10,8.00
2006,03,12,15,11,8.00
2006,03,12,15,12,8.00
2006,03,12,15,13,8.00
2006,03,12,15,14,7.90
2006,03,12,15,15,7.80
2006,03,12,15,16,7.80
2006,03,12,15,17,7.80
2006,03,12,15,18,7.80
2006,03,12,15,19,7.80
2006,03,12,15,20,7.80
2006,03,12,15,21,7.80
2006,03,12,15,22,7.80
2006,03,12,15,23,7.90
2006,03,12,15,24,7.90
2006,03,12,15,25,8.00
2006,03,12,15,26,8.00
2006,03,12,15,27,8.10
2006,03,12,15,28,8.20
2006,03,12,15,29,8.20
2006,03,12,15,30,8.20
2006,03,12,15,31,8.00
2006,03,12,15,32,7.90
2006,03,12,15,33,8.00
2006,03,12,15,34,8.10
2006,03,12,15,35,8.00
2006,03,12,15,36,8.00
2006,03,12,15,37,7.80
2006,03,12,15,38,7.80
2006,03,12,15,39,7.80
2006,03,12,15,40,7.80
2006,03,12,15,41,7.90
2006,03,12,15,42,7.90
2006,03,12,15,43,7.90
2006,03,12,15,44,8.00
2006,03,12,15,45,8.10
2006,03,12,15,46,8.10
2006,03,12,15,47,8.20
2006,03,12,15,48,8.20
2006,03,12,15,49,8.30
2006,03,12,15,50,8.30
2006,03,12,15,51,8.40
2006,03,12,15,52,8.40
2006,03,12,15,53,8.40
2006,03,12,15,54,8.50
2006,03,12,15,55,8.40
2006,03,12,15,56,8.30
2006,03,12,15,57,8.30
2006,03,12,15,58,8.30
2006,03,12,15,59,8.20
2006,03,12,16,00,8.20
2006,03,12,16,01,8.20
2006,03,12,16,02,8.20
2006,03,12,16,03,8.10
2006,03,12,16,04,8.00
2006,03,12,16,05,8.00
2006,03,12,16,06,7.90
2006,03,12,16,07,7.90
2006,03,12,16,08,7.90
2006,03,12,16,09,7.90
2006,03,12,16,10,7.90
2006,03,12,16,11,7.90
2006,03,12,16,12,8.00
2006,03,12,16,13,8.00
2006,03,12,16,14,8.00
2006,03,12,16,15,7.90
2006,03,12,16,16,7.90
2006,03,12,16,17,7.90
2006,03,12,16,18,7.80
2006,03,12,16,19,7.80
2006,03,12,16,20,7.80
2006,03,12,16,21,7.80
2006,03,12,16,22,7.80
2006,03,12,16,23,7.80
2006,03,12,16,24,7.80
2006,03,12,16,25,7.80
2006,03,12,16,26,7.80
2006,03,12,16,27,7.80
2006,03,12,16,28,7.80
2006,03,12,16,29,7.80
2006,03,12,16,30,7.70
2006,03,12,16,31,7.70
2006,03,12,16,32,7.70
2006,03,12,16,33,7.70
2006,03,12,16,34,7.80
2006,03,12,16,35,7.80
2006,03,12,16,36,7.80
2006,03,12,16,37,7.70
2006,03,12,16,38,7.70
2006,03,12,16,39,7.70
2006,03,12,16,40,7.60
2006,03,12,16,41,7.60
2006,03,12,16,42,7.60
2006,03,12,16,43,7.60
2006,03,12,16,44,7.60
2006,03,12,16,45,7.50
2006,03,12,16,46,7.50
2006,03,12,16,47,7.40
2006,03,12,16,48,7.40
2006,03,12,16,49,7.40
2006,03,12,16,50,7.40
2006,03,12,16,51,7.30
2006,03,12,16,52,7.30
2006,03,12,16,53,7.30
2006,03,12,16,54,7.30
2006,03,12,16,55,7.30
2006,03,12,16,56,7.30
2006,03,12,16,57,7.30
2006,03,12,16,58,7.20
2006,03,12,16,59,7.20
2006,03,12,17,00,7.20
2006,03,12,17,01,7.20
2006,03,12,17,02,7.20
2006,03,12,17,03,7.20
2006,03,12,17,04,7.20
2006,03,12,17,05,7.10
2006,03,12,17,06,7.10
2006,03,12,17,07,7.10
2006,03,12,17,08,7.10
2006,03,12,17,09,7.10
2006,03,12,17,10,7.10
2006,03,12,17,11,7.00
2006,03,12,17,12,7.00
2006,03,12,17,13,7.00
2006,03,12,17,14,7.00
2006,03,12,17,15,7.00
2006,03,12,17,16,7.00
2006,03,12,17,17,7.00
2006,03,12,17,18,7.00
2006,03,12,17,19,7.00
2006,03,12,17,20,6.90
2006,03,12,17,21,6.90
2006,03,12,17,22,6.90
2006,03,12,17,23,6.90
2006,03,12,17,24,6.90
2006,03,12,17,25,6.90
2006,03,12,17,26,6.90
2006,03,12,17,27,6.90
2006,03,12,17,28,6.90
2006,03,12,17,29,6.90
2006,03,12,17,30,6.90
2006,03,12,17,31,6.80
2006,03,12,17,32,6.80
2006,03,12,17,33,6.80
2006,03,12,17,34,6.80
2006,03,12,17,35,6.80
2006,03,12,17,36,6.80
2006,03,12,17,37,6.80
2006,03,12,17,38,6.80
2006,03,12,17,39,6.80
2006,03,12,17,40,6.80
2006,03,12,17,41,6.80
2006,03,12,17,42,6.80
2006,03,12,17,43,6.70
2006,03,12,17,44,6.70
2006,03,12,17,45,6.70
2006,03,12,17,46,6.70
2006,03,12,17,47,6.70
2006,03,12,17,48,6.70
2006,03,12,17,49,6.70
2006,03,12,17,50,6.70